Time,TemperatureF,DewpointF,PressureIn,WindDirection,WindDirectionDegrees,WindSpeedMPH,WindSpeedGustMPH,Humidity,HourlyPrecipIn,Conditions,Clouds,dailyrainin,SoftwareType,DateUTC
2013-01-01 00:04:00,46.3,44.9,30.24,NE,44,0.0,0.0,95,0.00,,,0.00,Wunderground v.1.15,2013-01-01 05:04:00,
2013-01-01 00:09:00,46.2,44.8,30.24,NE,44,0.0,0.0,95,0.00,,,0.00,Wunderground v.1.15,2013-01-01 05:09:00,
2013-01-01 00:14:00,46.0,44.6,30.24,NE,44,0.0,0.0,95,0.00,,,0.00,Wunderground v.1.15,2013-01-01 05:14:00,
2013-01-01 00:19:00,45.9,44.5,30.24,NE,44,0.0,0.0,95,0.00,,,0.00,Wunderground v.1.15,2013-01-01 05:19:00,
2013-01-01 00:24:00,46.0,44.9,30.24,NE,44,0.0,0.0,96,0.00,,,0.00,Wunderground v.1.15,2013-01-01 05:24:00,
2013-01-01 00:34:00,45.9,44.8,30.23,NE,44,0.0,0.0,96,0.00,,,0.00,Wunderground v.1.15,2013-01-01 05:34:00,
2013-01-01 00:44:00,45.7,44.6,30.23,NE,44,0.0,0.0,96,0.00,,,0.00,Wunderground v.1.15,2013-01-01 05:44:00,
2013-01-01 00:54:00,45.6,44.5,30.23,NE,44,0.0,0.0,96,0.00,,,0.00,Wunderground v.1.15,2013-01-01 05:54:00,
2013-01-01 00:59:00,45.5,44.4,30.22,NE,44,0.0,0.0,96,0.00,,,0.00,Wunderground v.1.15,2013-01-01 05:59:00,
2013-01-01 01:04:00,45.4,44.3,30.22,NE,44,0.0,0.0,96,0.00,,,0.00,Wunderground v.1.15,2013-01-01 06:04:00,
2013-01-01 01:14:00,45.4,44.3,30.22,NE,44,0.0,0.0,96,0.00,,,0.00,Wunderground v.1.15,2013-01-01 06:14:00,
2013-01-01 01:19:00,45.5,44.4,30.22,NE,44,0.0,0.0,96,0.00,,,0.00,Wunderground v.1.15,2013-01-01 06:19:00,
2013-01-01 01:29:00,45.8,44.7,30.21,NE,44,0.0,0.0,96,0.00,,,0.00,Wunderground v.1.15,2013-01-01 06:29:00,
2013-01-01 01:34:00,46.0,44.9,30.21,NE,44,0.0,0.0,96,0.00,,,0.00,Wunderground v.1.15,2013-01-01 06:34:00,
2013-01-01 01:44:00,46.2,45.1,30.21,NE,44,0.0,0.0,96,0.00,,,0.00,Wunderground v.1.15,2013-01-01 06:44:00,
2013-01-01 01:49:00,46.3,45.2,30.21,NE,44,0.0,0.0,96,0.00,,,0.00,Wunderground v.1.15,2013-01-01 06:49:00,
2013-01-01 01:59:00,46.6,45.5,30.20,NE,44,0.0,0.0,96,0.00,,,0.00,Wunderground v.1.15,2013-01-01 06:59:00,
2013-01-01 02:04:00,46.7,45.6,30.20,NE,44,0.0,0.0,96,0.00,,,0.00,Wunderground v.1.15,2013-01-01 07:04:00,
2013-01-01 02:14:00,46.6,45.5,30.19,NE,44,0.0,0.0,96,0.00,,,0.00,Wunderground v.1.15,2013-01-01 07:14:00,
2013-01-01 02:19:00,46.8,45.7,30.19,NE,44,0.0,0.0,96,0.00,,,0.00,Wunderground v.1.15,2013-01-01 07:19:00,
2013-01-01 02:29:00,46.8,45.7,30.18,NE,44,0.0,0.0,96,0.00,,,0.00,Wunderground v.1.15,2013-01-01 07:29:00,
2013-01-01 02:34:00,46.9,45.8,30.18,NE,44,0.0,0.0,96,0.00,,,0.00,Wunderground v.1.15,2013-01-01 07:34:00,
2013-01-01 02:44:00,46.8,45.7,30.18,NE,44,0.0,0.0,96,0.00,,,0.00,Wunderground v.1.15,2013-01-01 07:44:00,
2013-01-01 02:49:00,46.7,45.6,30.18,NE,44,0.0,0.0,96,0.00,,,0.00,Wunderground v.1.15,2013-01-01 07:49:00,
2013-01-01 02:54:00,46.7,45.6,30.18,NE,44,0.0,0.0,96,0.00,,,0.00,Wunderground v.1.15,2013-01-01 07:54:00,
2013-01-01 03:04:00,46.4,45.3,30.17,NE,44,0.0,0.0,96,0.00,,,0.00,Wunderground v.1.15,2013-01-01 08:04:00,
2013-01-01 03:14:00,46.1,45.0,30.18,NE,44,0.0,0.0,96,0.00,,,0.00,Wunderground v.1.15,2013-01-01 08:14:00,
2013-01-01 03:19:00,45.8,44.7,30.18,NE,44,0.0,0.0,96,0.00,,,0.00,Wunderground v.1.15,2013-01-01 08:19:00,
2013-01-01 03:29:00,46.2,45.4,30.18,NE,43,0.0,0.0,97,0.00,,,0.00,Wunderground v.1.15,2013-01-01 08:29:00,
2013-01-01 03:34:00,46.2,45.1,30.18,NE,43,0.0,0.0,96,0.00,,,0.00,Wunderground v.1.15,2013-01-01 08:34:00,
2013-01-01 03:44:00,45.9,44.8,30.18,NE,43,0.0,0.0,96,0.00,,,0.00,Wunderground v.1.15,2013-01-01 08:44:00,
2013-01-01 03:54:00,45.7,44.6,30.18,NE,43,0.0,0.0,96,0.00,,,0.00,Wunderground v.1.15,2013-01-01 08:54:00,
2013-01-01 04:04:00,45.8,44.7,30.18,NE,44,0.0,0.0,96,0.00,,,0.00,Wunderground v.1.15,2013-01-01 09:04:00,
2013-01-01 04:14:00,45.7,44.6,30.18,NE,44,0.0,0.0,96,0.00,,,0.00,Wunderground v.1.15,2013-01-01 09:14:00,
2013-01-01 04:19:00,45.5,44.4,30.18,NE,44,0.0,0.0,96,0.00,,,0.00,Wunderground v.1.15,2013-01-01 09:19:00,
2013-01-01 04:24:00,45.3,44.2,30.18,NE,44,0.0,0.0,96,0.00,,,0.00,Wunderground v.1.15,2013-01-01 09:24:00,
2013-01-01 04:34:00,45.2,44.1,30.18,NE,44,0.0,0.0,96,0.00,,,0.00,Wunderground v.1.15,2013-01-01 09:34:00,
2013-01-01 04:39:00,45.1,44.0,30.18,NE,44,0.0,0.0,96,0.00,,,0.00,Wunderground v.1.15,2013-01-01 09:39:00,
2013-01-01 04:49:00,45.1,44.0,30.18,NE,44,0.0,0.0,96,0.00,,,0.00,Wunderground v.1.15,2013-01-01 09:49:00,
2013-01-01 04:54:00,45.3,44.2,30.17,NE,44,0.0,0.0,96,0.00,,,0.00,Wunderground v.1.15,2013-01-01 09:54:00,
2013-01-01 05:04:00,45.8,45.0,30.17,NE,44,0.0,0.0,97,0.00,,,0.00,Wunderground v.1.15,2013-01-01 10:04:00,
2013-01-01 05:14:00,46.2,45.4,30.17,NE,44,0.0,0.0,97,0.00,,,0.00,Wunderground v.1.15,2013-01-01 10:14:00,
2013-01-01 05:19:00,46.2,45.4,30.17,NE,44,0.0,0.0,97,0.00,,,0.00,Wunderground v.1.15,2013-01-01 10:19:00,
2013-01-01 05:29:00,46.4,45.6,30.17,NE,43,0.0,1.0,97,0.00,,,0.00,Wunderground v.1.15,2013-01-01 10:29:00,
2013-01-01 05:34:00,46.5,45.7,30.17,NE,43,0.0,1.0,97,0.00,,,0.00,Wunderground v.1.15,2013-01-01 10:34:00,
2013-01-01 05:39:00,46.5,45.4,30.17,NE,43,0.0,0.0,96,0.00,,,0.00,Wunderground v.1.15,2013-01-01 10:39:00,
2013-01-01 05:49:00,46.3,45.2,30.17,NE,43,0.0,0.0,96,0.00,,,0.00,Wunderground v.1.15,2013-01-01 10:49:00,
2013-01-01 05:54:00,46.0,44.9,30.16,NE,43,0.0,0.0,96,0.00,,,0.00,Wunderground v.1.15,2013-01-01 10:54:00,
2013-01-01 06:04:00,46.0,44.9,30.16,NE,43,0.0,0.0,96,0.00,,,0.00,Wunderground v.1.15,2013-01-01 11:04:00,
2013-01-01 06:14:00,46.4,45.6,30.15,NNW,327,0.0,0.0,97,0.00,,,0.00,Wunderground v.1.15,2013-01-01 11:14:00,
2013-01-01 06:24:00,48.1,47.6,30.15,West,271,0.0,0.0,98,0.00,,,0.00,Wunderground v.1.15,2013-01-01 11:24:00,
2013-01-01 06:29:00,49.1,48.6,30.15,West,271,0.0,0.0,98,0.00,,,0.00,Wunderground v.1.15,2013-01-01 11:29:00,
2013-01-01 06:34:00,50.0,49.5,30.15,West,265,0.0,0.0,98,0.00,,,0.00,Wunderground v.1.15,2013-01-01 11:34:00,
2013-01-01 06:44:00,51.1,50.6,30.15,WNW,284,0.0,0.0,98,0.00,,,0.00,Wunderground v.1.15,2013-01-01 11:44:00,
2013-01-01 06:54:00,50.9,50.4,30.15,WNW,284,0.0,0.0,98,0.00,,,0.00,Wunderground v.1.15,2013-01-01 11:54:00,
2013-01-01 07:04:00,51.4,50.9,30.14,West,263,0.0,0.0,98,0.00,,,0.00,Wunderground v.1.15,2013-01-01 12:04:00,
2013-01-01 07:14:00,52.0,51.5,30.15,WNW,287,0.0,0.0,98,0.00,,,0.00,Wunderground v.1.15,2013-01-01 12:14:00,
2013-01-01 07:19:00,52.2,51.7,30.15,West,267,0.0,0.0,98,0.00,,,0.00,Wunderground v.1.15,2013-01-01 12:19:00,
2013-01-01 07:29:00,52.6,52.1,30.15,West,273,0.0,0.0,98,0.00,,,0.00,Wunderground v.1.15,2013-01-01 12:29:00,
2013-01-01 07:39:00,52.7,52.2,30.15,WNW,286,0.0,0.0,98,0.00,,,0.00,Wunderground v.1.15,2013-01-01 12:39:00,
2013-01-01 07:44:00,52.7,51.9,30.15,WNW,291,0.0,0.0,97,0.00,,,0.00,Wunderground v.1.15,2013-01-01 12:44:00,
2013-01-01 07:54:00,52.8,52.0,30.15,West,275,0.0,0.0,97,0.00,,,0.00,Wunderground v.1.15,2013-01-01 12:54:00,
2013-01-01 07:59:00,53.0,52.2,30.15,West,277,0.0,0.0,97,0.00,,,0.00,Wunderground v.1.15,2013-01-01 12:59:00,
2013-01-01 08:04:00,53.2,52.4,30.15,West,276,0.0,0.0,97,0.00,,,0.00,Wunderground v.1.15,2013-01-01 13:04:00,
2013-01-01 08:14:00,54.0,53.4,30.16,WNW,295,0.0,1.0,98,0.00,,,0.00,Wunderground v.1.15,2013-01-01 13:14:00,
2013-01-01 08:19:00,54.6,54.0,30.16,West,265,0.0,0.0,98,0.00,,,0.00,Wunderground v.1.15,2013-01-01 13:19:00,
2013-01-01 08:29:00,55.3,54.7,30.17,West,279,0.0,0.0,98,0.00,,,0.00,Wunderground v.1.15,2013-01-01 13:29:00,
2013-01-01 08:34:00,55.5,54.9,30.17,WSW,255,0.0,0.0,98,0.00,,,0.00,Wunderground v.1.15,2013-01-01 13:34:00,
2013-01-01 08:44:00,56.1,55.5,30.17,West,281,0.0,0.0,98,0.00,,,0.00,Wunderground v.1.15,2013-01-01 13:44:00,
2013-01-01 08:49:00,56.3,55.7,30.17,West,281,0.0,0.0,98,0.00,,,0.00,Wunderground v.1.15,2013-01-01 13:49:00,
2013-01-01 08:59:00,56.6,55.8,30.17,WNW,283,0.0,0.0,97,0.00,,,0.00,Wunderground v.1.15,2013-01-01 13:59:00,
2013-01-01 09:04:00,56.7,55.9,30.18,WNW,282,0.0,0.0,97,0.00,,,0.00,Wunderground v.1.15,2013-01-01 14:04:00,
2013-01-01 09:14:00,57.2,56.4,30.17,West,277,0.0,1.0,97,0.00,,,0.00,Wunderground v.1.15,2013-01-01 14:14:00,
2013-01-01 09:24:00,57.6,56.8,30.18,West,281,0.0,0.0,97,0.00,,,0.00,Wunderground v.1.15,2013-01-01 14:24:00,
2013-01-01 09:34:00,58.2,57.4,30.17,SSE,156,0.0,0.0,97,0.00,,,0.00,Wunderground v.1.15,2013-01-01 14:34:00,
2013-01-01 09:39:00,58.3,57.5,30.17,South,184,0.0,0.0,97,0.00,,,0.00,Wunderground v.1.15,2013-01-01 14:39:00,
2013-01-01 09:49:00,58.7,57.9,30.18,West,280,0.0,0.0,97,0.00,,,0.00,Wunderground v.1.15,2013-01-01 14:49:00,
2013-01-01 09:59:00,59.2,58.1,30.18,WNW,291,1.0,2.0,96,0.00,,,0.00,Wunderground v.1.15,2013-01-01 14:59:00,
2013-01-01 10:04:00,59.5,58.4,30.18,WSW,248,1.0,2.0,96,0.00,,,0.00,Wunderground v.1.15,2013-01-01 15:04:00,
2013-01-01 10:14:00,60.2,58.8,30.18,WSW,249,1.0,1.0,95,0.00,,,0.00,Wunderground v.1.15,2013-01-01 15:14:00,
2013-01-01 10:24:00,61.4,59.4,30.18,West,260,0.0,1.0,93,0.00,,,0.00,Wunderground v.1.15,2013-01-01 15:24:00,
2013-01-01 10:34:00,63.4,59.8,30.18,West,265,2.0,3.0,88,0.00,,,0.00,Wunderground v.1.15,2013-01-01 15:34:00,
2013-01-01 10:39:00,64.1,59.5,30.18,WNW,297,2.0,2.0,85,0.00,,,0.00,Wunderground v.1.15,2013-01-01 15:39:00,
2013-01-01 10:44:00,65.0,59.4,30.18,WSW,254,2.0,2.0,82,0.00,,,0.00,Wunderground v.1.15,2013-01-01 15:44:00,
2013-01-01 10:49:00,65.8,60.2,30.18,WSW,244,2.0,3.0,82,0.00,,,0.00,Wunderground v.1.15,2013-01-01 15:49:00,
2013-01-01 10:59:00,67.7,60.2,30.17,West,264,1.0,1.0,77,0.00,,,0.00,Wunderground v.1.15,2013-01-01 15:59:00,
2013-01-01 11:04:00,68.5,59.9,30.17,WSW,248,1.0,1.0,74,0.00,,,0.00,Wunderground v.1.15,2013-01-01 16:04:00,
2013-01-01 11:14:00,69.9,60.5,30.16,WNW,289,2.0,2.0,72,0.00,,,0.00,Wunderground v.1.15,2013-01-01 16:14:00,
2013-01-01 11:19:00,70.2,60.4,30.15,WSW,257,2.0,2.0,71,0.00,,,0.00,Wunderground v.1.15,2013-01-01 16:19:00,
2013-01-01 11:29:00,70.9,60.2,30.15,West,269,2.0,2.0,69,0.00,,,0.00,Wunderground v.1.15,2013-01-01 16:29:00,
2013-01-01 11:39:00,72.2,60.2,30.15,WSW,257,2.0,2.0,66,0.00,,,0.00,Wunderground v.1.15,2013-01-01 16:39:00,
2013-01-01 11:49:00,72.1,60.1,30.14,ESE,112,3.0,3.0,66,0.00,,,0.00,Wunderground v.1.15,2013-01-01 16:49:00,
2013-01-01 11:59:00,72.4,60.0,30.14,SW,229,3.0,3.0,65,0.00,,,0.00,Wunderground v.1.15,2013-01-01 16:59:00,
2013-01-01 12:04:00,72.8,59.5,30.13,WSW,241,3.0,7.0,63,0.00,,,0.00,Wunderground v.1.15,2013-01-01 17:04:00,
2013-01-01 12:14:00,73.1,59.3,30.12,WSW,250,3.0,3.0,62,0.00,,,0.00,Wunderground v.1.15,2013-01-01 17:14:00,
2013-01-01 12:24:00,73.2,59.4,30.12,SW,225,3.0,3.0,62,0.00,,,0.00,Wunderground v.1.15,2013-01-01 17:24:00,
2013-01-01 12:34:00,73.5,60.1,30.11,West,259,4.0,6.0,63,0.00,,,0.00,Wunderground v.1.15,2013-01-01 17:34:00,
2013-01-01 12:44:00,73.6,59.3,30.10,West,267,4.0,4.0,61,0.00,,,0.00,Wunderground v.1.15,2013-01-01 17:44:00,
2013-01-01 12:54:00,73.7,59.4,30.10,WSW,248,3.0,4.0,61,0.00,,,0.00,Wunderground v.1.15,2013-01-01 17:54:00,
2013-01-01 12:59:00,73.6,58.9,30.10,SSW,206,3.0,3.0,60,0.00,,,0.00,Wunderground v.1.15,2013-01-01 17:59:00,
2013-01-01 13:04:00,73.2,59.4,30.10,SW,235,3.0,3.0,62,0.00,,,0.00,Wunderground v.1.15,2013-01-01 18:04:00,
2013-01-01 13:14:00,73.3,59.5,30.09,West,278,2.0,3.0,62,0.00,,,0.00,Wunderground v.1.15,2013-01-01 18:14:00,
2013-01-01 13:19:00,73.5,59.2,30.09,West,274,3.0,4.0,61,0.00,,,0.00,Wunderground v.1.15,2013-01-01 18:19:00,
2013-01-01 13:24:00,73.6,58.9,30.08,West,276,3.0,6.0,60,0.00,,,0.00,Wunderground v.1.15,2013-01-01 18:24:00,
2013-01-01 13:34:00,74.0,59.2,30.08,West,276,1.0,3.0,60,0.00,,,0.00,Wunderground v.1.15,2013-01-01 18:34:00,
2013-01-01 13:39:00,73.5,58.8,30.08,West,279,2.0,2.0,60,0.00,,,0.00,Wunderground v.1.15,2013-01-01 18:39:00,
2013-01-01 13:49:00,74.6,59.3,30.07,SW,236,2.0,10.0,59,0.00,,,0.00,Wunderground v.1.15,2013-01-01 18:49:00,
2013-01-01 13:54:00,75.3,60.0,30.07,WSW,251,3.0,10.0,59,0.00,,,0.00,Wunderground v.1.15,2013-01-01 18:54:00,
2013-01-01 14:04:00,75.6,59.8,30.07,SW,217,2.0,2.0,58,0.00,,,0.00,Wunderground v.1.15,2013-01-01 19:04:00,
2013-01-01 14:14:00,75.2,59.9,30.07,WNW,285,2.0,4.0,59,0.00,,,0.00,Wunderground v.1.15,2013-01-01 19:14:00,
2013-01-01 14:19:00,75.2,59.4,30.07,SW,229,2.0,2.0,58,0.00,,,0.00,Wunderground v.1.15,2013-01-01 19:19:00,
2013-01-01 14:29:00,74.9,59.6,30.06,SE,146,3.0,3.0,59,0.00,,,0.00,Wunderground v.1.15,2013-01-01 19:29:00,
2013-01-01 14:34:00,75.2,60.4,30.06,West,260,2.0,3.0,60,0.00,,,0.00,Wunderground v.1.15,2013-01-01 19:34:00,
2013-01-01 14:44:00,75.3,59.5,30.06,West,260,2.0,2.0,58,0.00,,,0.00,Wunderground v.1.15,2013-01-01 19:44:00,
2013-01-01 14:54:00,75.5,59.7,30.06,West,262,2.0,2.0,58,0.00,,,0.00,Wunderground v.1.15,2013-01-01 19:54:00,
2013-01-01 15:04:00,74.5,58.8,30.06,WSW,238,3.0,5.0,58,0.00,,,0.00,Wunderground v.1.15,2013-01-01 20:04:00,
2013-01-01 15:14:00,75.0,59.7,30.06,West,275,3.0,5.0,59,0.00,,,0.00,Wunderground v.1.15,2013-01-01 20:14:00,
2013-01-01 15:24:00,75.3,59.0,30.05,WSW,253,3.0,4.0,57,0.00,,,0.00,Wunderground v.1.15,2013-01-01 20:24:00,
2013-01-01 15:34:00,75.2,58.4,30.06,West,271,2.0,5.0,56,0.00,,,0.00,Wunderground v.1.15,2013-01-01 20:34:00,
2013-01-01 15:39:00,75.2,58.9,30.05,West,277,2.0,4.0,57,0.00,,,0.00,Wunderground v.1.15,2013-01-01 20:39:00,
2013-01-01 15:49:00,75.0,58.7,30.05,SW,217,3.0,7.0,57,0.00,,,0.00,Wunderground v.1.15,2013-01-01 20:49:00,
2013-01-01 15:59:00,74.3,58.6,30.06,West,261,3.0,3.0,58,0.00,,,0.00,Wunderground v.1.15,2013-01-01 20:59:00,
2013-01-01 16:04:00,74.1,58.9,30.06,WSW,253,3.0,3.0,59,0.00,,,0.00,Wunderground v.1.15,2013-01-01 21:04:00,
2013-01-01 16:14:00,74.3,59.0,30.05,WSW,245,2.0,3.0,59,0.00,,,0.00,Wunderground v.1.15,2013-01-01 21:14:00,
2013-01-01 16:19:00,74.2,58.5,30.05,WSW,257,3.0,3.0,58,0.00,,,0.00,Wunderground v.1.15,2013-01-01 21:19:00,
2013-01-01 16:29:00,73.8,58.6,30.05,WSW,238,2.0,3.0,59,0.00,,,0.00,Wunderground v.1.15,2013-01-01 21:29:00,
2013-01-01 16:34:00,73.6,57.9,30.06,SSW,200,3.0,3.0,58,0.00,,,0.00,Wunderground v.1.15,2013-01-01 21:34:00,
2013-01-01 16:44:00,72.7,58.0,30.05,WSW,242,3.0,3.0,60,0.00,,,0.00,Wunderground v.1.15,2013-01-01 21:44:00,
2013-01-01 16:54:00,71.6,57.9,30.06,WSW,245,2.0,5.0,62,0.00,,,0.00,Wunderground v.1.15,2013-01-01 21:54:00,
2013-01-01 17:04:00,71.1,57.9,30.06,WSW,254,2.0,2.0,63,0.00,,,0.00,Wunderground v.1.15,2013-01-01 22:04:00,
2013-01-01 17:14:00,70.7,57.9,30.06,WSW,250,0.0,1.0,64,0.00,,,0.00,Wunderground v.1.15,2013-01-01 22:14:00,
2013-01-01 17:24:00,70.0,58.1,30.05,West,262,0.0,2.0,66,0.00,,,0.00,Wunderground v.1.15,2013-01-01 22:24:00,
2013-01-01 17:34:00,69.5,57.6,30.05,West,259,1.0,2.0,66,0.00,,,0.00,Wunderground v.1.15,2013-01-01 22:34:00,
2013-01-01 17:39:00,69.1,57.3,30.05,WSW,249,1.0,1.0,66,0.00,,,0.00,Wunderground v.1.15,2013-01-01 22:39:00,
2013-01-01 17:49:00,68.4,57.4,30.04,West,269,0.0,1.0,68,0.00,,,0.00,Wunderground v.1.15,2013-01-01 22:49:00,
2013-01-01 17:54:00,68.1,57.5,30.04,WSW,252,0.0,1.0,69,0.00,,,0.00,Wunderground v.1.15,2013-01-01 22:54:00,
2013-01-01 18:04:00,67.5,57.4,30.04,West,276,0.0,0.0,70,0.00,,,0.00,Wunderground v.1.15,2013-01-01 23:04:00,
2013-01-01 18:14:00,67.1,57.4,30.05,WSW,253,0.0,0.0,71,0.00,,,0.00,Wunderground v.1.15,2013-01-01 23:14:00,
2013-01-01 18:24:00,66.5,57.2,30.05,WSW,253,0.0,0.0,72,0.00,,,0.00,Wunderground v.1.15,2013-01-01 23:24:00,
2013-01-01 18:34:00,65.8,56.9,30.05,WSW,253,0.0,0.0,73,0.00,,,0.00,Wunderground v.1.15,2013-01-01 23:34:00,
2013-01-01 18:44:00,64.9,56.4,30.05,WSW,253,0.0,0.0,74,0.00,,,0.00,Wunderground v.1.15,2013-01-01 23:44:00,
2013-01-01 18:54:00,64.0,55.9,30.05,WSW,253,0.0,0.0,75,0.00,,,0.00,Wunderground v.1.15,2013-01-01 23:54:00,
2013-01-01 19:04:00,62.4,54.4,30.06,WSW,253,0.0,0.0,75,0.00,,,0.00,Wunderground v.1.15,2013-01-02 00:04:00,
2013-01-01 19:14:00,61.7,55.1,30.06,WSW,253,0.0,0.0,79,0.00,,,0.00,Wunderground v.1.15,2013-01-02 00:14:00,
2013-01-01 19:24:00,61.6,55.4,30.05,WSW,253,0.0,0.0,80,0.00,,,0.00,Wunderground v.1.15,2013-01-02 00:24:00,
2013-01-01 19:34:00,61.0,55.5,30.05,WSW,253,0.0,0.0,82,0.00,,,0.00,Wunderground v.1.15,2013-01-02 00:34:00,
2013-01-01 19:44:00,60.8,55.3,30.05,WSW,253,0.0,0.0,82,0.00,,,0.00,Wunderground v.1.15,2013-01-02 00:44:00,
2013-01-01 19:54:00,60.2,55.3,30.05,WSW,253,0.0,0.0,84,0.00,,,0.00,Wunderground v.1.15,2013-01-02 00:54:00,
2013-01-01 20:04:00,60.0,55.5,30.05,WSW,253,0.0,0.0,85,0.00,,,0.00,Wunderground v.1.15,2013-01-02 01:04:00,
2013-01-01 20:14:00,59.5,55.3,30.05,WSW,253,0.0,0.0,86,0.00,,,0.00,Wunderground v.1.15,2013-01-02 01:14:00,
2013-01-01 20:19:00,59.3,55.1,30.05,WSW,253,0.0,0.0,86,0.00,,,0.00,Wunderground v.1.15,2013-01-02 01:19:00,
2013-01-01 20:29:00,58.5,54.3,30.05,WSW,253,0.0,0.0,86,0.00,,,0.00,Wunderground v.1.15,2013-01-02 01:29:00,
2013-01-01 20:34:00,58.1,54.2,30.05,WSW,253,0.0,0.0,87,0.00,,,0.00,Wunderground v.1.15,2013-01-02 01:34:00,
2013-01-01 20:44:00,58.2,55.0,30.05,WSW,253,0.0,0.0,89,0.00,,,0.00,Wunderground v.1.15,2013-01-02 01:44:00,
2013-01-01 20:49:00,58.2,55.0,30.05,WSW,253,0.0,0.0,89,0.00,,,0.00,Wunderground v.1.15,2013-01-02 01:49:00,
2013-01-01 20:59:00,57.9,54.7,30.05,WSW,253,0.0,0.0,89,0.00,,,0.00,Wunderground v.1.15,2013-01-02 01:59:00,
2013-01-01 21:04:00,58.0,55.1,30.04,WSW,254,0.0,0.0,90,0.00,,,0.00,Wunderground v.1.15,2013-01-02 02:04:00,
2013-01-01 21:14:00,58.3,55.4,30.04,WSW,253,0.0,0.0,90,0.00,,,0.00,Wunderground v.1.15,2013-01-02 02:14:00,
2013-01-01 21:24:00,58.7,55.5,30.04,WSW,253,0.0,0.0,89,0.00,,,0.00,Wunderground v.1.15,2013-01-02 02:24:00,
2013-01-01 21:34:00,58.7,55.5,30.05,West,259,0.0,0.0,89,0.00,,,0.00,Wunderground v.1.15,2013-01-02 02:34:00,
2013-01-01 21:39:00,58.8,55.6,30.05,West,259,0.0,0.0,89,0.00,,,0.00,Wunderground v.1.15,2013-01-02 02:39:00,
2013-01-01 21:49:00,59.1,55.9,30.05,West,259,0.0,0.0,89,0.00,,,0.00,Wunderground v.1.15,2013-01-02 02:49:00,
2013-01-01 21:59:00,59.0,55.4,30.05,West,259,0.0,0.0,88,0.00,,,0.00,Wunderground v.1.15,2013-01-02 02:59:00,
2013-01-01 22:04:00,58.7,55.2,30.05,West,259,0.0,0.0,88,0.00,,,0.00,Wunderground v.1.15,2013-01-02 03:04:00,
2013-01-01 22:14:00,58.3,55.1,30.05,West,259,0.0,0.0,89,0.00,,,0.00,Wunderground v.1.15,2013-01-02 03:14:00,
2013-01-01 22:19:00,58.3,55.4,30.05,West,259,0.0,0.0,90,0.00,,,0.00,Wunderground v.1.15,2013-01-02 03:19:00,
2013-01-01 22:29:00,58.1,55.2,30.05,West,259,0.0,0.0,90,0.00,,,0.00,Wunderground v.1.15,2013-01-02 03:29:00,
2013-01-01 22:34:00,58.1,55.2,30.05,West,259,0.0,0.0,90,0.00,,,0.00,Wunderground v.1.15,2013-01-02 03:34:00,
2013-01-01 22:44:00,58.3,55.7,30.05,West,259,0.0,0.0,91,0.00,,,0.00,Wunderground v.1.15,2013-01-02 03:44:00,
2013-01-01 22:54:00,58.5,55.9,30.05,West,259,0.0,0.0,91,0.00,,,0.00,Wunderground v.1.15,2013-01-02 03:54:00,
2013-01-01 22:59:00,58.4,55.5,30.04,West,259,0.0,0.0,90,0.00,,,0.00,Wunderground v.1.15,2013-01-02 03:59:00,
2013-01-01 23:04:00,58.4,55.5,30.04,West,259,0.0,0.0,90,0.00,,,0.00,Wunderground v.1.15,2013-01-02 04:04:00,
2013-01-01 23:14:00,58.4,55.8,30.04,West,259,0.0,0.0,91,0.00,,,0.00,Wunderground v.1.15,2013-01-02 04:14:00,
2013-01-01 23:19:00,58.4,55.8,30.03,West,259,0.0,0.0,91,0.00,,,0.00,Wunderground v.1.15,2013-01-02 04:19:00,
2013-01-01 23:29:00,58.8,56.2,30.03,West,259,0.0,0.0,91,0.00,,,0.00,Wunderground v.1.15,2013-01-02 04:29:00,
2013-01-01 23:39:00,58.9,56.0,30.03,West,259,0.0,0.0,90,0.00,,,0.00,Wunderground v.1.15,2013-01-02 04:39:00,
2013-01-01 23:49:00,58.9,56.0,30.02,West,259,0.0,0.0,90,0.00,,,0.00,Wunderground v.1.15,2013-01-02 04:49:00,
2013-01-01 23:54:00,59.0,56.1,30.02,West,259,0.0,0.0,90,0.00,,,0.00,Wunderground v.1.15,2013-01-02 04:54:00,